Theta_e
338 338 339 340 342 344 344 346 350 353 353 353 355 353 350 351 352 353 353 353 350 350 351 352 353 356 358 357 355 355 356 355 355 353 352 350 346 344 343 341 340 339 336
338 337 337 337 338 340 344 345 345 348 353 354 353 354 352 350 350 352 351 350 349 348 348 350 350 350 352 355 356 355 353 354 354 353 352 350 346 344 343 342 341 338 336
338 337 335 335 336 338 340 343 346 346 348 350 351 351 348 348 350 352 352 349 346 346 347 347 346 345 347 349 352 355 353 354 354 353 352 349 345 343 343 342 341 339 337
336 333 332 333 335 335 336 338 342 342 344 343 346 348 344 346 347 350 350 349 345 343 345 343 343 345 345 345 345 349 352 354 352 351 351 350 346 344 342 342 341 340 338
331 330 328 331 334 332 333 334 338 343 341 341 344 346 345 344 345 345 348 347 345 345 340 343 340 341 341 344 346 347 348 350 351 351 351 350 347 345 342 341 340 340 339
330 331 329 329 330 329 332 331 331 339 340 340 344 342 344 342 345 346 346 343 343 342 340 342 341 340 339 339 341 342 344 345 348 349 350 349 348 345 342 341 340 340 337
326 327 324 326 326 325 329 332 328 332 336 341 344 340 339 344 344 343 343 341 339 337 341 343 340 338 337 336 335 335 337 340 341 345 346 346 347 346 344 341 340 339 334
325 323 325 323 325 325 326 330 328 324 331 339 337 338 329 324 333 335 336 336 336 337 337 338 338 336 336 336 335 334 336 338 339 340 343 344 346 347 345 341 339 336 331
323 323 324 323 324 326 323 326 327 322 323 334 340 337 328 321 326 329 331 333 335 335 336 337 335 333 334 333 330 332 334 336 341 341 341 345 347 347 345 340 337 333 331
322 322 323 324 323 323 323 323 325 323 323 324 332 336 336 332 322 324 330 332 332 332 332 335 331 329 328 326 328 328 327 329 334 340 341 344 343 344 341 338 334 331 327
321 320 321 322 321 320 322 321 322 319 325 324 326 328 329 330 330 326 322 326 328 331 331 330 325 325 324 325 326 325 326 325 325 332 336 338 340 339 336 332 326 324 323
315 318 320 321 321 319 318 319 320 319 318 318 323 327 324 325 325 323 323 324 323 328 327 327 322 323 323 324 325 324 323 323 323 324 324 325 325 325 324 323 322 320 319
311 316 318 318 317 318 318 317 318 317 317 317 317 317 320 320 323 323 322 319 317 324 324 325 320 321 322 321 322 321 321 319 318 318 317 318 318 318 317 317 316 316 316
313 316 316 316 317 317 317 315 316 315 315 315 316 317 318 318 319 320 320 318 314 315 320 322 320 320 322 320 320 319 317 315 314 313 313 313 313 313 312 312 312 312 312
313 314 314 313 313 315 315 313 312 311 312 312 314 314 315 317 319 319 319 318 315 309 311 317 314 317 319 317 316 316 314 314 313 312 311 310 310 310 310 309 310 310 311
314 313 310 310 311 312 311 310 310 309 308 309 310 310 310 313 315 316 317 316 316 312 310 317 314 314 315 315 316 313 313 313 312 311 310 309 308 308 309 309 309 309 310
309 308 308 308 309 309 309 307 307 306 306 307 309 309 310 309 308 314 314 315 313 312 309 311 312 313 312 311 311 312 311 312 311 310 309 308 308 308 309 309 308 308 307
307 307 307 307 306 306 306 304 304 305 304 305 307 308 308 310 308 310 311 313 313 313 312 308 309 310 310 310 308 308 310 310 310 309 308 307 307 307 307 308 307 305 304
304 303 303 303 303 304 303 303 303 303 304 305 306 307 308 309 309 310 310 312 313 312 310 308 306 309 309 308 307 309 307 308 309 307 306 306 306 306 306 307 306 304 302
302 302 302 302 303 303 303 303 302 303 302 304 306 306 306 307 308 310 308 310 309 309 311 308 306 305 306 306 306 304 304 304 301 304 305 304 304 305 304 305 307 304 302
302 302 302 302 302 303 303 304 304 302 302 303 304 306 307 309 309 308 309 311 309 307 307 306 304 305 304 303 302 304 300 300 300 304 303 303 303 304 304 304 304 304 303
301 301 301 301 301 302 300 303 304 302 306 302 304 305 305 307 305 304 304 304 305 304 304 304 304 303 303 303 304 301 299 299 297 308 303 298 301 301 302 302 302 301 302
302 303 306 306 306 307 300 300 303 303 302 302 303 303 303 304 304 303 301 301 301 301 302 301 302 301 302 305 303 301 302 302 302 304 301 296 300 298 301 301 301 300 300
304 305 306 307 307 305 299 299 302 303 304 303 304 304 302 301 301 300 299 299 298 298 299 299 299 301 304 306 305 305 304 301 305 306 302 295 299 297 299 299 300 300 299
304 302 303 306 306 306 297 298 303 305 302 306 305 303 303 303 299 299 300 299 299 298 300 300 299 298 299 301 304 305 301 301 303 301 301 298 298 297 297 297 298 299 299
305 303 304 306 304 306 297 297 303 305 305 303 305 304 299 300 296 297 302 302 300 298 300 299 299 300 302 302 304 306 303 300 304 298 300 299 298 298 295 298 298 299 299
Wind_Speed
8 8 8 9 10 10 10 10 10 10 11 13 12 13 14 13 12 8 7 8 12 14 14 14 14 13 14 16 17 18 20 22 23 23 24 25 26 25 25 24 22 20 20
9 9 9 9 9 10 11 11 11 11 11 11 12 13 14 13 12 12 9 8 11 12 12 12 11 11 11 11 13 18 20 21 23 23 24 26 27 27 26 25 23 22 20
10 12 10 10 10 11 14 12 13 12 12 11 14 13 12 13 11 12 10 8 6 11 10 8 8 9 11 12 12 12 17 20 23 24 25 26 27 26 27 26 24 23 22
11 11 10 10 12 12 11 12 12 12 12 12 11 12 12 11 12 12 11 8 7 6 5 3 7 9 10 12 14 14 13 15 20 22 25 27 26 27 29 28 25 23 21
10 8 8 10 13 11 11 9 12 13 13 13 13 14 11 10 11 10 12 10 9 6 4 1 4 8 9 10 12 14 15 14 14 19 23 26 26 28 28 28 26 25 24
11 10 9 11 12 11 11 10 12 12 12 13 12 12 11 9 9 10 10 9 7 5 4 3 4 4 8 12 13 14 15 16 16 17 21 24 27 28 29 28 26 24 24
12 11 10 10 9 10 14 14 9 13 9 10 10 10 8 8 9 8 8 7 6 5 3 1 2 4 5 9 12 14 18 21 20 20 20 21 26 29 30 29 28 23 21
14 13 13 12 11 9 12 13 11 8 6 8 9 7 7 4 2 6 6 7 6 5 4 1 2 5 6 6 10 18 21 23 23 24 22 20 24 29 29 28 26 26 23
15 15 15 13 12 9 8 11 11 11 6 8 13 7 5 9 4 5 8 5 7 6 3 0 2 5 7 8 10 13 20 20 23 25 22 21 22 26 28 28 28 25 21
15 15 15 14 14 11 11 10 9 7 8 7 6 8 6 5 6 5 4 6 5 5 4 1 3 4 6 5 8 13 18 26 24 15 15 15 11 15 22 24 22 21 17
16 15 14 14 13 10 12 10 11 8 6 5 4 6 5 4 4 5 8 5 5 1 3 3 4 3 4 4 4 9 16 20 28 30 22 24 9 11 14 17 14 12 11
13 15 15 13 12 12 11 10 9 7 5 5 5 4 4 4 2 3 4 3 5 2 3 2 4 3 2 3 6 13 15 19 21 25 26 27 26 25 20 17 12 7 5
13 14 16 13 10 11 10 9 10 7 7 5 2 2 2 4 4 2 3 3 3 2 2 1 3 3 3 3 6 11 16 20 23 25 25 24 22 20 19 15 12 8 8
12 15 14 12 12 11 8 7 6 5 6 5 5 1 1 0 1 2 3 3 4 4 3 1 2 3 4 3 9 14 11 19 21 21 21 21 19 18 14 11 8 7 8
12 15 12 10 10 9 7 7 5 5 5 4 6 5 3 2 2 1 2 4 4 3 3 4 2 3 4 5 9 8 10 17 19 20 19 17 14 13 10 9 7 7 8
15 11 9 8 7 6 7 6 4 4 3 3 3 4 2 2 2 1 3 3 4 3 3 1 2 3 5 6 10 9 11 15 19 18 16 15 13 10 9 7 7 7 8
8 8 7 7 5 5 6 5 4 5 4 3 2 2 2 2 1 1 2 3 4 4 4 2 2 4 5 10 8 8 8 9 10 15 14 13 12 9 10 8 8 9 8
6 8 8 6 6 6 6 6 5 4 5 5 5 4 5 3 3 3 0 3 3 4 4 3 2 2 5 9 10 10 8 6 8 13 14 14 13 11 10 8 10 11 12
7 7 7 7 6 6 6 5 5 5 5 4 4 4 4 4 3 2 2 2 2 3 5 2 3 2 3 8 9 8 7 7 6 11 11 12 13 13 13 12 12 14 14
6 6 6 5 6 5 6 5 4 5 5 5 4 4 4 3 2 3 2 2 2 3 5 4 3 4 6 7 7 9 7 5 5 5 8 9 9 13 15 14 13 12 11
6 6 6 6 6 5 5 7 4 4 3 5 5 4 5 5 12 10 3 4 3 1 2 4 5 5 6 8 8 5 6 5 4 3 4 6 6 6 9 13 12 14 10
5 5 6 6 6 4 9 8 7 5 6 6 7 6 7 9 12 16 15 23 16 6 5 2 2 6 7 8 6 8 7 4 3 1 4 5 5 6 7 8 16 16 13
5 7 7 6 6 6 8 6 7 5 4 5 5 6 7 8 11 10 16 17 20 20 17 4 4 4 5 9 8 8 5 4 4 6 5 4 4 6 6 7 16 18 19
6 6 7 6 6 7 10 6 7 5 5 5 6 7 8 8 9 7 8 10 12 12 12 8 6 4 5 8 7 7 7 7 6 6 4 3 2 5 5 6 16 18 17
6 6 6 7 8 8 12 9 5 6 5 10 8 8 7 8 9 10 9 9 10 9 9 12 13 11 10 11 10 8 6 5 5 4 3 2 0 2 4 7 7 15 15
8 6 7 8 9 9 14 12 8 5 8 7 8 8 11 7 8 8 8 7 10 9 7 8 7 9 10 11 10 5 5 4 5 3 1 0 1 1 2 4 6 6 6
Wind_Direction
335 330 325 318 311 298 286 277 265 256 247 246 246 244 252 252 253 254 260 223 238 247 258 263 269 272 267 258 249 240 227 221 216 216 212 205 208 206 204 204 204 208 211
333 328 322 320 312 310 300 284 276 268 256 250 248 243 247 250 247 250 251 259 214 238 246 255 273 284 288 292 272 248 235 226 224 221 217 210 207 206 206 204 202 207 212
343 336 329 324 318 316 304 290 277 267 260 247 245 238 237 241 245 245 248 254 247 212 232 252 284 298 299 299 299 294 253 229 228 220 217 215 215 207 205 204 204 201 206
348 341 331 326 327 312 314 304 284 268 259 256 243 236 230 231 238 238 241 243 243 264 214 247 308 308 312 311 304 299 292 257 233 229 220 216 217 213 204 204 204 201 204
344 349 328 321 329 317 311 300 289 270 262 254 248 234 225 226 234 237 236 239 244 252 270 216 302 309 318 314 306 301 293 290 266 239 236 227 215 217 214 206 202 197 195
345 341 334 332 325 320 314 317 303 278 255 263 256 232 222 222 230 227 228 236 242 232 235 289 311 317 327 315 309 303 294 287 285 274 244 235 219 212 216 215 205 198 197
349 340 335 335 325 313 318 315 315 290 264 253 245 235 226 214 220 223 224 226 215 196 180 135 307 307 305 299 292 300 297 288 279 271 264 242 223 216 211 209 203 194 184
335 333 335 333 330 319 321 324 334 311 272 248 237 253 235 266 227 221 239 194 179 171 156 168 354 325 316 320 327 318 310 297 284 272 263 260 230 220 212 202 199 176 178
327 326 326 329 328 330 319 327 329 330 287 293 248 252 228 239 163 168 198 175 161 172 122 123 30 348 341 341 340 336 346 324 283 265 259 258 229 221 213 187 177 181 180
313 316 316 320 323 325 322 320 327 321 311 303 284 256 285 325 218 178 156 165 176 174 92 11 44 3 352 350 357 2 20 28 4 268 258 270 210 182 168 169 176 174 158
304 305 305 309 313 316 315 318 328 335 290 293 287 309 275 274 332 265 232 178 193 133 105 70 46 13 24 12 45 32 23 29 40 46 56 58 139 145 114 110 124 149 128
298 299 303 306 309 310 313 317 322 321 316 329 333 312 287 288 194 197 233 259 311 345 12 118 93 77 59 42 44 33 42 53 57 65 63 71 75 81 76 83 85 104 153
299 297 300 301 305 303 310 321 318 317 316 316 357 337 356 335 323 307 256 243 254 284 205 82 95 126 128 55 70 67 64 66 65 66 67 69 72 75 76 66 57 29 21
295 295 296 294 303 299 312 314 304 313 311 316 318 49 283 321 323 298 298 247 261 246 242 212 128 154 127 137 99 84 75 71 71 70 71 69 70 71 72 70 54 34 18
294 289 294 305 300 306 327 316 309 317 317 327 323 328 338 325 262 209 201 239 221 237 250 163 163 160 117 99 100 90 86 85 82 80 73 71 73 74 70 66 53 27 29
304 315 301 309 299 342 351 342 344 345 344 355 341 317 350 339 270 193 192 200 209 235 240 103 99 119 132 109 114 105 101 93 85 78 75 70 64 63 57 61 59 64 47
336 319 321 307 7 12 13 14 8 13 21 25 31 39 28 309 15 104 125 196 205 215 232 116 102 136 128 127 103 97 99 97 86 81 74 71 63 58 44 67 68 54 43
332 356 351 1 20 27 27 24 14 8 25 25 14 24 34 15 10 11 338 227 210 211 227 173 126 145 132 125 122 121 108 96 93 77 68 62 54 48 38 59 57 48 32
16 16 15 11 16 26 23 19 12 0 354 17 356 342 358 349 4 340 19 318 252 217 223 154 129 107 109 131 125 119 107 104 88 69 61 58 51 45 40 43 62 43 40
21 16 11 8 16 20 21 13 2 9 359 346 327 316 321 309 307 353 29 42 11 286 219 181 130 132 131 139 131 130 122 81 75 60 64 62 46 48 43 35 45 61 50
14 11 11 10 10 2 2 355 12 16 5 339 331 349 324 69 51 45 63 62 54 253 191 157 142 139 133 147 146 121 110 106 68 61 71 45 29 33 34 33 24 28 23
359 356 352 349 359 358 347 357 13 0 10 9 5 36 32 63 61 59 62 60 54 34 51 82 125 147 139 139 129 132 136 147 129 172 83 50 25 36 35 35 29 31 34
331 340 360 10 12 24 355 351 27 29 27 16 22 34 55 49 52 53 55 60 54 51 49 34 86 82 102 141 134 144 157 117 113 119 107 53 17 41 25 27 33 36 38
357 359 16 17 26 37 355 6 45 53 53 44 47 46 59 56 45 45 50 56 52 44 38 31 31 46 89 137 146 145 130 110 130 93 71 83 13 50 33 32 33 36 36
24 27 12 17 21 33 5 1 43 61 43 58 52 56 56 54 31 29 51 57 60 51 58 51 40 63 83 104 120 123 121 129 115 79 48 107 119 70 37 31 27 28 29
32 27 34 30 31 38 26 13 19 62 56 49 46 45 34 41 45 45 66 56 56 41 51 53 40 50 69 74 77 90 124 113 115 117 65 48 171 218 98 25 25 24 17